Osceola Municipal, IA

12:22 PM CDT on August 20, 2017 (GMT -0500)
Osceola Municipal

Weather History for KI75 - June, 2013

Change the Weather History Date:

Wednesday, June 12, 2013

  Actual Average (KCNC) Record (KCNC)
Temperature  
Mean Temperature 76 °F -  
Max Temperature 88 °F 81 °F 95 °F (1952)
Min Temperature 64 °F 59 °F 46 °F (1982)
Cooling Degree Days 11    
Growing Degree Days 26 (Base 50)    
Moisture  
Dew Point 65 °F    
Average Humidity 71    
Maximum Humidity 89    
Minimum Humidity 51    
Precipitation  
Precipitation 0.00 in - - ()
Sea Level Pressure  
Sea Level Pressure 29.79 in    
Wind  
Wind Speed 9 mph (SW)    
Max Wind Speed 22 mph    
Max Gust Speed 32 mph    
Visibility 10 miles    
Events      
Averages and records for this station are not official NWS values.
T = Trace of Precipitation, MM = Missing Value Source: NWS Daily Summary

Daily Weather History Graph

Daily Weather History Graph

Search for Another Location

Airport or City:

Trip Planner

Search our weather history database for the weather conditions in past years. The results will help you decide how hot, cold, wet, or windy it might be!

Date:

Astronomy

Jun. 12, 2013 Rise Set
Actual Time 5:41 AM CDT 8:47 PM CDT
Civil Twilight 5:08 AM CDT 9:21 PM CDT
Nautical Twilight 4:25 AM CDT 10:04 PM CDT
Astronomical Twilight 3:34 AM CDT 10:54 PM CDT
Moon 9:23 AM CDT (6/12) 11:22 PM CDT (6/12)
Length of Visible Light 16h 12m
Length of Day
15h 05m
Waxing Crescent, 14% of the Moon is Illuminated
Jun 12
Waxing Crescent
Jun 16
First Quarter
Jun 23
Full
Jun 29
Last Quarter
Jul 8
New

Hourly Weather History & Observations

Time (CDT) Temp. Heat Index Dew Point Humidity Pressure Visibility Wind Dir Wind Speed Gust Speed Precip Events Conditions
12:15 AM 68.9 °F - 63.9 °F 84% 29.83 in 10.0 mi ESE 4.6 mph - N/A   Clear
12:35 AM 68.5 °F - 63.7 °F 84% 29.82 in 10.0 mi East 4.6 mph - N/A   Clear
12:55 AM 68.0 °F - 63.9 °F 87% 29.82 in 10.0 mi ESE 4.6 mph - N/A   Clear
1:15 AM 68.2 °F - 63.9 °F 86% 29.81 in 10.0 mi ESE 5.8 mph - N/A   Clear
1:35 AM 68.2 °F - 63.9 °F 86% 29.81 in 10.0 mi ESE 5.8 mph - N/A   Clear
1:55 AM 68.9 °F - 64.0 °F 84% 29.79 in 10.0 mi ESE 4.6 mph - N/A   Clear
2:15 AM 68.0 °F - 63.7 °F 86% 29.79 in 10.0 mi SE 4.6 mph - N/A   Clear
2:35 AM 67.5 °F - 63.5 °F 87% 29.81 in 10.0 mi SE 3.5 mph - N/A   Clear
2:55 AM 67.1 °F - 63.5 °F 88% 29.80 in 10.0 mi SE 4.6 mph - N/A   Clear
3:15 AM 67.6 °F - 63.7 °F 87% 29.79 in 10.0 mi SE 6.9 mph - N/A   Clear
3:35 AM 68.5 °F - 64.4 °F 87% 29.78 in 10.0 mi SSE 5.8 mph - N/A   Clear
3:55 AM 68.9 °F - 64.4 °F 86% 29.78 in 10.0 mi SSE 6.9 mph - N/A   Clear
4:15 AM 69.8 °F - 64.9 °F 84% 29.78 in 10.0 mi SSE 6.9 mph - N/A   Clear
4:35 AM 70.2 °F - 65.5 °F 85% 29.79 in 10.0 mi SSE 6.9 mph - N/A   Clear
4:55 AM 70.5 °F - 65.8 °F 85% 29.81 in 10.0 mi East 3.5 mph - N/A   Clear
5:15 AM 70.9 °F - 66.0 °F 85% 29.81 in 10.0 mi ESE 5.8 mph - N/A   Clear
5:35 AM 70.0 °F - 65.7 °F 86% 29.83 in 10.0 mi North 3.5 mph - N/A   Clear
5:55 AM 69.3 °F - 65.8 °F 89% 29.83 in 10.0 mi ENE 3.5 mph - N/A   Scattered Clouds
6:15 AM 69.4 °F - 66.2 °F 89% 29.83 in 10.0 mi East 6.9 mph - N/A   Scattered Clouds
6:35 AM 69.6 °F - 66.0 °F 88% 29.82 in 10.0 mi East 6.9 mph - N/A   Clear
6:55 AM 70.2 °F - 66.2 °F 87% 29.80 in 10.0 mi East 10.4 mph - N/A   Clear
7:15 AM 70.2 °F - 66.4 °F 88% 29.76 in 10.0 mi ESE 15.0 mph - N/A   Clear
7:35 AM 71.2 °F - 67.1 °F 87% 29.76 in 10.0 mi SE 10.4 mph - N/A   Clear
7:55 AM 72.5 °F - 67.5 °F 84% 29.75 in 10.0 mi SE 13.8 mph - N/A   Clear
8:15 AM 72.7 °F - 67.5 °F 84% 29.76 in 10.0 mi SE 13.8 mph - N/A   Clear
8:35 AM 74.5 °F - 68.4 °F 81% 29.77 in 10.0 mi SSE 11.5 mph 17.3 mph N/A   Clear
8:55 AM 76.1 °F - 68.9 °F 78% 29.76 in 10.0 mi SSE 10.4 mph - N/A   Clear
9:15 AM 77.5 °F - 69.3 °F 76% 29.75 in 10.0 mi South 12.7 mph 16.1 mph N/A   Clear
9:35 AM 77.7 °F - 69.4 °F 76% 29.74 in 10.0 mi South 10.4 mph 16.1 mph N/A   Clear
9:55 AM 79.9 °F - 69.3 °F 70% 29.74 in 10.0 mi South 13.8 mph 19.6 mph N/A   Clear
10:15 AM 80.8 °F 83.8 °F 69.1 °F 67% 29.73 in 10.0 mi South 16.1 mph 21.9 mph N/A   Clear
10:35 AM 81.3 °F 84.6 °F 69.6 °F 67% 29.73 in 10.0 mi SSW 17.3 mph 23.0 mph N/A   Clear
10:55 AM 81.9 °F 85.4 °F 69.6 °F 66% 29.73 in 10.0 mi SSW 18.4 mph 24.2 mph N/A   Scattered Clouds
11:15 AM 83.3 °F 87.4 °F 70.2 °F 64% 29.73 in 10.0 mi SSW 17.3 mph 23.0 mph N/A   Mostly Cloudy
11:35 AM 83.3 °F 86.6 °F 68.7 °F 61% 29.74 in 10.0 mi SSW 15.0 mph 23.0 mph N/A   Mostly Cloudy
11:55 AM 83.1 °F 86.3 °F 68.4 °F 61% 29.74 in 10.0 mi SW 13.8 mph - N/A   Overcast
12:15 PM 83.3 °F 86.6 °F 68.5 °F 61% 29.74 in 10.0 mi SW 12.7 mph 19.6 mph N/A   Overcast
12:35 PM 84.2 °F 88.1 °F 69.4 °F 61% 29.75 in 10.0 mi WSW 12.7 mph 21.9 mph N/A   Mostly Cloudy
12:55 PM 84.4 °F 88.2 °F 68.9 °F 60% 29.75 in 10.0 mi SW 16.1 mph 21.9 mph N/A   Mostly Cloudy
1:15 PM 84.4 °F 87.9 °F 68.7 °F 59% 29.75 in 10.0 mi SW 10.4 mph 18.4 mph N/A   Mostly Cloudy
1:35 PM 84.0 °F 87.6 °F 68.7 °F 60% 29.75 in 10.0 mi West 11.5 mph - N/A   Mostly Cloudy
1:55 PM 86.4 °F 90.4 °F 68.9 °F 56% 29.75 in 10.0 mi WSW 10.4 mph - N/A   Mostly Cloudy
2:15 PM 86.4 °F 90.0 °F 68.7 °F 55% 29.75 in 10.0 mi West 11.5 mph - N/A   Scattered Clouds
2:35 PM 86.2 °F 89.7 °F 68.5 °F 55% 29.75 in 10.0 mi WSW 9.2 mph - N/A   Scattered Clouds
2:55 PM 85.5 °F 88.8 °F 68.4 °F 56% 29.75 in 10.0 mi West 10.4 mph - N/A   Scattered Clouds
3:15 PM 87.6 °F 92.3 °F 69.4 °F 55% 29.75 in 10.0 mi West 11.5 mph 16.1 mph N/A   Scattered Clouds
3:35 PM 88.0 °F 92.5 °F 69.4 °F 54% 29.74 in 10.0 mi WSW 12.7 mph 16.1 mph N/A   Scattered Clouds
3:55 PM 87.4 °F 91.9 °F 69.3 °F 55% 29.74 in 10.0 mi West 11.5 mph 18.4 mph N/A   Clear
4:15 PM 88.3 °F 93.2 °F 70.0 °F 54% 29.74 in 10.0 mi West 11.5 mph - N/A   Scattered Clouds
4:35 PM 87.3 °F 92.0 °F 69.6 °F 56% 29.73 in 10.0 mi West 10.4 mph - N/A   Mostly Cloudy
4:55 PM 87.6 °F 92.7 °F 70.0 °F 56% 29.73 in 10.0 mi West 12.7 mph - N/A   Mostly Cloudy
5:15 PM 87.8 °F 91.1 °F 67.5 °F 51% 29.73 in 10.0 mi West 12.7 mph - N/A   Scattered Clouds
5:35 PM 87.1 °F 90.2 °F 67.3 °F 52% 29.73 in 10.0 mi West 15.0 mph 20.7 mph N/A   Scattered Clouds
5:55 PM 86.5 °F 89.3 °F 66.7 °F 52% 29.73 in 10.0 mi WNW 12.7 mph 19.6 mph N/A   Clear
6:15 PM 85.1 °F 88.5 °F 68.5 °F 57% 29.73 in 10.0 mi WNW 16.1 mph 23.0 mph N/A   Clear
6:35 PM 82.4 °F 85.0 °F 67.1 °F 60% 29.75 in 10.0 mi WNW 15.0 mph - N/A   Scattered Clouds
6:55 PM 81.3 °F 83.2 °F 65.3 °F 58% 29.76 in 10.0 mi WNW 18.4 mph 27.6 mph N/A   Scattered Clouds
7:15 PM 79.9 °F - 64.8 °F 60% 29.78 in 10.0 mi WNW 20.7 mph 26.5 mph N/A   Scattered Clouds
7:35 PM 77.4 °F - 64.2 °F 64% 29.79 in 10.0 mi WNW 21.9 mph 32.2 mph N/A   Scattered Clouds
7:55 PM 76.3 °F - 61.3 °F 60% 29.81 in 10.0 mi WNW 17.3 mph 27.6 mph N/A   Scattered Clouds
8:15 PM 75.0 °F - 60.6 °F 61% 29.82 in 10.0 mi WNW 18.4 mph 25.3 mph N/A   Scattered Clouds
8:35 PM 74.1 °F - 59.2 °F 59% 29.83 in 10.0 mi NW 18.4 mph 26.5 mph N/A   Scattered Clouds
8:55 PM 72.7 °F - 59.2 °F 62% 29.83 in 10.0 mi NW 17.3 mph 24.2 mph N/A   Scattered Clouds
9:15 PM 70.3 °F - 60.3 °F 70% 29.85 in 10.0 mi NW 21.9 mph 28.8 mph N/A   Scattered Clouds
9:35 PM 68.0 °F - 59.4 °F 74% 29.86 in 10.0 mi NW 13.8 mph 21.9 mph N/A   Scattered Clouds
9:55 PM 66.0 °F - 59.0 °F 78% 29.86 in 10.0 mi WNW 11.5 mph 17.3 mph N/A   Clear
10:15 PM 65.5 °F - 58.3 °F 77% 29.88 in 10.0 mi WNW 12.7 mph 21.9 mph N/A   Scattered Clouds
10:35 PM 64.4 °F - 56.5 °F 75% 29.89 in 10.0 mi WNW 16.1 mph 26.5 mph N/A   Scattered Clouds
10:55 PM 64.2 °F - 56.7 °F 76% 29.90 in 10.0 mi WNW 17.3 mph 23.0 mph N/A   Mostly Cloudy
11:15 PM 64.4 °F - 56.3 °F 75% 29.90 in 10.0 mi WNW 17.3 mph 28.8 mph N/A   Overcast
11:35 PM 64.4 °F - 55.9 °F 74% 29.91 in 10.0 mi WNW 16.1 mph 20.7 mph N/A   Overcast
11:55 PM 64.4 °F - 55.0 °F 72% 29.91 in 10.0 mi WNW 18.4 mph 25.3 mph N/A   Overcast